W4SNA-2 Weather Reports


Display with metric or nautical units.
time (UTC)temp
F
wind
direction
speed
MPH
gust
MPH
rain 1hr
in
rain 24hr
in
rain mn
in
humidity
%
barometer
mb
20260508165823 62 0 0.0 6.0 0.00 0.07 0.00 45 1018.3
20260508165317 61 165 1.0 11.0 0.00 0.07 0.00 43 1018.4
20260508164818 61 166 4.0 11.0 0.00 0.07 0.00 37 1018.6
20260508164317 62 165 3.0 10.0 0.00 0.07 0.00 39 1018.7
20260508163818 63 170 4.0 9.0 0.00 0.07 0.00 45 1018.7
20260508163318 62 176 3.0 8.0 0.00 0.07 0.00 43 1018.7
20260508162820 61 0 0.0 7.0 0.00 0.07 0.00 48 1018.9
20260508162318 61 174 2.0 11.0 0.00 0.07 0.00 43 1018.9
20260508161819 61 172 3.0 11.0 0.00 0.07 0.00 44 1019.1
20260508161317 62 177 1.0 6.0 0.00 0.07 0.00 46 1019.2
20260508160818 62 0 0.0 7.0 0.00 0.07 0.00 48 1019.2
20260508160317 62 180 1.0 7.0 0.00 0.07 0.07 43 1019.3
20260508155822 62 0 0.0 2.0 0.00 0.07 0.07 51 1019.4
20260508155317 60 0 0.0 6.0 0.00 0.07 0.07 50 1019.4
20260508154819 60 0 0.0 6.0 0.00 0.07 0.07 49 1019.4
20260508154317 60 0 0.0 6.0 0.00 0.07 0.07 45 1019.5
20260508153818 59 0 0.0 6.0 0.00 0.07 0.07 44 1019.5
20260508153318 60 0 0.0 5.0 0.00 0.07 0.07 45 1019.5
20260508152821 60 0 0.0 5.0 0.00 0.07 0.07 46 1019.6
20260508152317 60 0 0.0 9.0 0.00 0.07 0.07 50 1019.6
20260508151818 60 324 2.0 9.0 0.00 0.07 0.07 46 1019.6
20260508151317 59 0 0.0 6.0 0.00 0.07 0.07 50 1019.6
20260508150817 58 0 0.0 4.0 0.00 0.07 0.07 41 1019.6
20260508150317 59 0 0.0 4.0 0.00 0.07 0.07 47 1019.6
20260508145819 59 0 0.0 4.0 0.00 0.07 0.07 50 1019.7
20260508145317 59 0 0.0 4.0 0.00 0.07 0.07 49 1019.8
20260508144818 59 0 0.0 0.0 0.00 0.07 0.07 52 1019.7
20260508144317 58 0 0.0 0.0 0.00 0.07 0.07 48 1019.7
20260508143817 57 0 0.0 0.0 0.00 0.07 0.07 45 1019.6
20260508143317 56 0 0.0 10.0 0.00 0.07 0.07 48 1019.7
20260508142819 56 0 0.0 10.0 0.00 0.07 0.07 52 1019.7
20260508142317 56 0 0.0 0.0 0.00 0.07 0.07 53 1019.6
20260508141818 55 0 0.0 4.0 0.00 0.07 0.07 51 1019.5
20260508141317 55 0 0.0 4.0 0.00 0.07 0.07 55 1019.4
20260508140818 55 0 0.0 3.0 0.00 0.07 0.07 54 1019.4
20260508140317 54 0 0.0 4.0 0.00 0.07 0.07 54 1019.4
20260508135818 54 0 0.0 5.0 0.00 0.07 0.07 56 1019.4
20260508135317 54 327 1.0 5.0 0.00 0.07 0.07 52 1019.4
20260508134818 54 0 0.0 10.0 0.00 0.07 0.07 54 1019.3
20260508134317 53 0 0.0 10.0 0.00 0.07 0.07 53 1019.3
20260508133817 53 327 1.0 6.0 0.00 0.07 0.07 52 1019.3
20260508133318 53 0 0.0 6.0 0.00 0.07 0.07 56 1019.2
20260508132823 53 327 1.0 6.0 0.00 0.07 0.07 53 1019.2
20260508132317 53 0 0.0 4.0 0.00 0.07 0.07 53 1019.1
20260508131818 52 0 0.0 5.0 0.00 0.07 0.07 54 1019.0
20260508131318 52 0 0.0 5.0 0.00 0.07 0.07 52 1019.0
20260508130817 52 0 0.0 4.0 0.00 0.07 0.07 57 1019.0
20260508130318 52 0 0.0 5.0 0.00 0.07 0.07 59 1019.0
20260508125825 51 327 1.0 6.0 0.00 0.07 0.07 57 1018.9
20260508125318 51 0 0.0 6.0 0.00 0.07 0.07 59 1018.9
20260508124819 51 327 2.0 5.0 0.00 0.07 0.07 61 1018.8
20260508123610 50 0 0.0 4.0 0.00 0.07 0.07 60 1018.7
20260508123107 50 0 0.0 3.0 0.00 0.07 0.07 63 1018.8
20260508122606 49 0 0.0 5.0 0.00 0.07 0.07 64 1018.7
20260508122107 49 328 2.0 5.0 0.00 0.08 0.07 62 1018.7
20260508121608 49 0 0.0 1.0 0.00 0.08 0.07 63 1018.7
20260508120337 49 0 0.0 6.0 0.00 0.08 0.07 66 1018.6
20260508115836 48 0 0.0 6.0 0.00 0.08 0.07 65 1018.4
20260508113958 47 0 0.0 0.0 0.00 0.08 0.07 67 1018.2
20260508113458 47 0 0.0 0.0 0.00 0.08 0.07 70 1018.1
20260508112958 47 0 0.0 3.0 0.00 0.08 0.07 68 1018.1
20260508112458 46 0 0.0 6.0 0.00 0.08 0.07 67 1018.0
20260508111958 46 0 0.0 9.0 0.00 0.08 0.07 69 1018.0
20260508111459 46 328 1.0 9.0 0.00 0.08 0.07 68 1017.8
20260508110958 46 328 2.0 13.0 0.00 0.08 0.07 68 1017.7
20260508110458 46 328 4.0 13.0 0.00 0.08 0.07 67 1017.6
20260508105958 46 328 3.0 12.0 0.00 0.08 0.07 67 1017.5
20260508105458 46 0 0.0 15.0 0.00 0.08 0.07 67 1017.5
20260508104958 46 328 1.0 15.0 0.00 0.08 0.07 67 1017.4
20260508104458 45 328 3.0 9.0 0.00 0.08 0.07 67 1017.3
20260508103958 45 329 3.0 9.0 0.00 0.08 0.07 67 1017.2
20260508103458 45 329 3.0 9.0 0.00 0.08 0.07 68 1017.2
20260508103000 45 330 3.0 9.0 0.00 0.08 0.07 68 1017.1
20260508102458 45 0 0.0 10.0 0.00 0.08 0.07 67 1017.0
20260508101959 45 0 0.0 26.0 0.00 0.08 0.07 68 1017.0
20260508101458 45 330 4.0 26.0 0.00 0.08 0.07 67 1016.9
20260508100737 46 329 7.0 16.0 0.00 0.08 0.07 68 1016.9
20260508100237 45 334 7.0 13.0 0.00 0.08 0.07 69 1016.7
20260508095739 45 333 4.0 12.0 0.00 0.08 0.07 71 1016.7
20260508095421 45 334 2.0 15.0 0.00 0.08 0.07 71 1016.5
20260508095237 45 334 1.0 12.0 0.00 0.08 0.07 70 1016.6
20260508094738 45 334 2.0 15.0 0.00 0.08 0.07 71 1016.5
20260508094237 45 331 5.0 16.0 0.00 0.08 0.07 71 1016.5
20260508093737 45 332 3.0 16.0 0.00 0.08 0.07 71 1016.4
20260508093237 45 331 8.0 14.0 0.00 0.08 0.07 72 1016.3
20260508092737 46 330 4.0 10.0 0.00 0.08 0.07 71 1016.2
20260508092551 45 327 3.0 10.0 0.00 0.08 0.07 73 1016.2
20260508092237 46 330 1.0 8.0 0.00 0.08 0.07 70 1016.3
20260508091237 45 331 1.0 13.0 0.00 0.08 0.07 72 1016.2
20260508090736 45 331 2.0 12.0 0.00 0.08 0.07 73 1016.1
20260508090236 45 327 3.0 10.0 0.00 0.08 0.07 73 1016.2
20260508085736 46 0 0.0 12.0 0.00 0.08 0.07 73 1016.2
20260508085236 46 0 0.0 13.0 0.00 0.08 0.07 73 1016.1
20260508084736 46 325 2.0 17.0 0.00 0.08 0.07 72 1016.0
20260508084236 46 323 5.0 17.0 0.00 0.08 0.07 72 1016.1
20260508083736 46 323 3.0 16.0 0.00 0.08 0.07 71 1016.1
20260508083236 46 323 7.0 16.0 0.00 0.08 0.07 72 1015.9
20260508082736 46 323 6.0 11.0 0.00 0.08 0.07 73 1015.8
20260508082238 46 324 2.0 10.0 0.00 0.08 0.07 73 1015.8
20260508081736 46 326 1.0 13.0 0.00 0.08 0.07 74 1015.8
20260508081237 47 326 2.0 13.0 0.00 0.08 0.07 73 1015.7
20260508081157 47 0 0.0 5.0 0.00 0.08 0.07 74 1015.5
20260508080500 47 328 4.0 18.0 0.00 0.08 0.07 73 1015.5
20260508080000 47 328 1.0 11.0 0.00 0.08 0.07 74 1015.6
20260508075500 47 328 1.0 11.0 0.00 0.08 0.07 74 1015.5
20260508075000 47 328 1.0 6.0 0.00 0.08 0.07 75 1015.5
20260508074500 47 0 0.0 5.0 0.00 0.08 0.07 74 1015.5
20260508073627 48 327 3.0 12.0 0.00 0.08 0.07 76 1015.2
20260508073557 47 327 2.0 11.0 0.00 0.08 0.07 75 1015.4
20260508073057 47 326 1.0 11.0 0.00 0.08 0.07 75 1015.3
20260508072559 47 323 3.0 11.0 0.00 0.08 0.07 74 1015.3
20260508072057 47 326 3.0 11.0 0.00 0.08 0.07 75 1015.2
20260508071558 48 327 3.0 12.0 0.00 0.08 0.07 76 1015.2
20260508071101 48 328 2.0 12.0 0.00 0.08 0.07 75 1015.2
20260508070557 48 326 5.0 12.0 0.00 0.08 0.07 76 1015.2
20260508070057 48 325 4.0 12.0 0.00 0.08 0.07 75 1015.1
20260508065558 48 327 3.0 17.0 0.00 0.08 0.07 76 1015.1
20260508065057 48 316 6.0 17.0 0.00 0.08 0.07 75 1015.1
20260508064255 49 319 4.0 10.0 0.00 0.08 0.07 74 1015.4
20260508063755 49 329 1.0 9.0 0.00 0.08 0.07 74 1015.4
20260508063256 49 340 1.0 10.0 0.00 0.08 0.07 74 1015.3
20260508062754 49 326 2.0 10.0 0.00 0.08 0.07 75 1015.1
20260508062301 49 0 0.0 8.0 0.00 0.08 0.07 76 1015.3
20260508061754 49 355 3.0 12.0 0.00 0.08 0.07 76 1015.3
20260508061254 49 356 3.0 12.0 0.00 0.08 0.07 76 1016.2
20260508060754 49 325 3.0 10.0 0.00 0.08 0.07 76 1016.2
20260508060256 49 353 3.0 10.0 0.00 0.08 0.07 76 1016.1
20260508055433 49 323 5.0 17.0 0.00 0.08 0.07 76 1016.2
20260508054931 49 345 7.0 17.0 0.00 0.08 0.07 77 1016.1
20260508054432 49 335 5.0 11.0 0.00 0.08 0.07 75 1016.0
20260508053931 49 334 4.0 9.0 0.00 0.08 0.07 77 1016.1
20260508053432 49 318 4.0 9.0 0.00 0.08 0.07 77 1016.1
20260508052739 49 326 4.0 10.0 0.00 0.08 0.07 78 1016.1
20260508051853 49 327 3.0 9.0 0.00 0.08 0.07 78 1016.1
20260508051352 49 327 3.0 9.0 0.00 0.08 0.07 77 1016.0
20260508050854 49 329 2.0 12.0 0.00 0.08 0.07 79 1016.0
20260508050354 49 329 3.0 12.0 0.00 0.09 0.07 77 1016.0
20260508045854 50 328 2.0 9.0 0.00 0.09 0.07 77 1016.0
20260508045353 50 322 3.0 9.0 0.00 0.09 0.07 77 1016.1
20260508044855 50 0 0.0 8.0 0.00 0.09 0.07 77 1016.1
20260508044354 49 0 0.0 8.0 0.00 0.09 0.07 77 1016.0
20260508043853 49 0 0.0 6.0 0.00 0.09 0.07 78 1015.8
20260508043236 49 0 0.0 11.0 0.00 0.09 0.07 78 1015.6
20260508042736 49 325 1.0 11.0 0.00 0.09 0.07 79 1015.7
20260508042236 49 0 0.0 6.0 0.00 0.09 0.07 78 1015.5
20260508041736 49 325 2.0 8.0 0.00 0.09 0.07 78 1015.4
20260508041236 49 325 3.0 10.0 0.00 0.09 0.07 78 1015.4
20260508040736 49 325 1.0 10.0 0.00 0.09 0.07 79 1015.3
20260508040236 50 324 2.0 8.0 0.00 0.09 0.07 78 1015.4
20260508035736 50 324 2.0 8.0 0.00 0.09 0.07 78 1015.4
20260508035236 50 325 1.0 6.0 0.00 0.09 0.07 77 1015.3
20260508034737 50 0 0.0 6.0 0.00 0.09 0.07 77 1015.3
20260508034236 50 0 0.0 6.0 0.00 0.09 0.07 77 1015.3
20260508033413 50 324 1.0 9.0 0.00 0.09 0.07 78 1015.2
20260508032913 50 324 1.0 10.0 0.00 0.09 0.07 78 1015.2
20260508032414 50 324 4.0 12.0 0.00 0.10 0.07 79 1015.0
20260508031913 49 329 3.0 17.0 0.00 0.11 0.07 80 1014.9
20260508031414 49 327 5.0 17.0 0.00 0.11 0.07 80 1014.8
20260508030105 49 321 4.0 9.0 0.00 0.13 0.07 81 1014.8
20260508025606 49 327 4.0 8.0 0.00 0.13 0.07 82 1014.7
20260508025106 49 328 4.0 11.0 0.00 0.13 0.07 81 1014.7
20260508024607 50 325 5.0 12.0 0.00 0.14 0.07 81 1014.6
20260508024106 50 319 6.0 12.0 0.00 0.14 0.07 80 1014.7
20260508023606 50 322 3.0 11.0 0.00 0.14 0.07 80 1014.5
20260508023105 50 320 3.0 11.0 0.00 0.14 0.07 80 1014.5
20260508022607 50 323 3.0 8.0 0.00 0.14 0.07 80 1014.3
20260508022104 50 322 2.0 10.0 0.00 0.14 0.07 79 1014.4
20260508021604 51 350 2.0 10.0 0.00 0.15 0.07 79 1014.3
20260508021105 51 318 3.0 9.0 0.00 0.15 0.07 78 1014.3
20260508020606 51 315 3.0 9.0 0.00 0.15 0.07 78 1014.2
20260508020104 51 335 4.0 10.0 0.00 0.15 0.07 78 1014.0
20260508015604 51 348 2.0 14.0 0.00 0.15 0.07 78 1013.8
20260508015106 51 324 2.0 14.0 0.00 0.16 0.07 79 1013.8
20260508014605 50 325 6.0 16.0 0.00 0.16 0.07 81 1013.7
20260508014106 50 316 5.0 16.0 0.00 0.16 0.07 80 1013.6
20260508013604 50 325 8.0 15.0 0.00 0.16 0.07 82 1013.6
20260508013106 50 326 3.0 11.0 0.00 0.16 0.07 82 1013.5
20260508012604 50 332 3.0 9.0 0.00 0.16 0.07 82 1013.5
20260508012104 51 324 3.0 8.0 0.00 0.16 0.07 80 1013.4
20260508011606 51 0 0.0 9.0 0.00 0.16 0.07 80 1013.3
20260508011106 51 319 3.0 11.0 0.00 0.17 0.07 80 1013.2
20260508010606 50 360 3.0 11.0 0.00 0.17 0.07 81 1013.0
20260508005735 50 0 0.0 11.0 0.00 0.17 0.07 83 1012.9
20260508005235 50 331 1.0 11.0 0.00 0.17 0.07 85 1012.8
20260508004735 50 331 3.0 13.0 0.00 0.17 0.07 85 1012.9
20260508004235 51 339 4.0 13.0 0.00 0.17 0.07 84 1012.9
20260508003735 51 0 0.0 21.0 0.00 0.17 0.07 85 1013.1
20260508003235 51 333 7.0 21.0 0.00 0.17 0.07 84 1012.8
20260508002735 52 333 5.0 15.0 0.00 0.17 0.07 84 1012.8
20260508002235 52 348 6.0 15.0 0.00 0.17 0.07 83 1012.8
20260508001735 52 323 6.0 13.0 0.00 0.17 0.07 85 1012.9
20260508001235 52 330 6.0 13.0 0.00 0.17 0.07 89 1012.9
20260508000735 52 314 3.0 9.0 0.00 0.17 0.07 92 1012.9
20260508000235 52 318 2.0 15.0 0.00 0.17 0.07 92 1012.7
20260507235735 52 325 2.0 15.0 0.00 0.17 0.07 94 1012.7
20260507235236 52 336 3.0 13.0 0.00 0.17 0.07 95 1012.7
20260507234735 52 325 1.0 12.0 0.00 0.17 0.07 96 1012.5
20260507234235 52 344 2.0 21.0 0.00 0.17 0.07 97 1012.5
20260507233735 52 324 4.0 21.0 0.00 0.17 0.07 98 1012.3
20260507233235 52 333 4.0 17.0 0.00 0.17 0.07 99 1012.2
20260507232735 52 310 3.0 14.0 0.00 0.17 0.07 99 1012.1
20260507232235 52 324 3.0 10.0 0.00 0.17 0.07 100 1012.1
20260507231735 52 323 2.0 10.0 0.00 0.17 0.07 100 1012.0
20260507231235 53 9 3.0 10.0 0.00 0.17 0.07 100 1011.8
20260507230735 53 323 4.0 10.0 0.00 0.17 0.07 100 1011.7
20260507230235 53 341 3.0 10.0 0.00 0.17 0.07 100 1011.7
20260507225722 53 313 4.0 11.0 0.00 0.17 0.07 100 1011.7
20260507225222 53 327 4.0 11.0 0.00 0.17 0.07 100 1011.7
20260507224722 53 337 3.0 11.0 0.00 0.17 0.07 100 1011.7
20260507224224 53 0 0.0 3.0 0.00 0.17 0.07 100 1011.6
20260507223722 53 0 0.0 1.0 0.00 0.17 0.07 100 1011.6
20260507223222 54 0 0.0 1.0 0.00 0.17 0.07 100 1011.6
20260507222722 53 0 0.0 2.0 0.00 0.17 0.07 100 1011.5
20260507222225 53 0 0.0 2.0 0.00 0.17 0.07 100 1011.4
20260507221722 53 0 0.0 6.0 0.00 0.17 0.07 100 1011.4
20260507221222 53 0 0.0 6.0 0.00 0.17 0.07 100 1011.4
20260507220722 53 0 0.0 3.0 0.00 0.17 0.07 100 1011.3
20260507220222 54 0 0.0 1.0 0.00 0.17 0.07 100 1011.2
20260507215722 54 0 0.0 11.0 0.00 0.17 0.07 100 1011.1
20260507215222 54 335 3.0 11.0 0.00 0.17 0.07 100 1010.9
20260507214722 54 335 2.0 11.0 0.00 0.17 0.07 100 1010.9
20260507214222 54 0 0.0 11.0 0.00 0.17 0.07 100 1010.9
20260507213722 53 343 2.0 10.0 0.00 0.17 0.07 100 1010.9
20260507213223 54 0 0.0 0.0 0.00 0.17 0.07 100 1011.0
20260507212722 54 0 0.0 4.0 0.00 0.17 0.07 100 1011.0
20260507212222 53 0 0.0 4.0 0.00 0.17 0.07 100 1011.0
20260507210847 53 345 4.0 12.0 0.00 0.17 0.07 100 1010.7
20260507210347 52 0 0.0 9.0 0.00 0.17 0.07 100 1010.7
20260507205847 52 0 0.0 9.0 0.00 0.17 0.07 100 1010.7
20260507205347 52 346 1.0 10.0 0.00 0.17 0.07 100 1010.7
20260507204847 52 346 5.0 10.0 0.00 0.17 0.07 100 1010.6
20260507203429 52 357 1.0 13.0 0.00 0.17 0.07 100 1010.2
20260507202927 52 59 5.0 11.0 0.01 0.17 0.07 100 1010.5
20260507202425 52 342 1.0 9.0 0.03 0.17 0.07 100 1010.6
20260507201927 52 342 3.0 14.0 0.04 0.17 0.07 100 1010.8
20260507201425 52 336 6.0 14.0 0.04 0.17 0.07 100 1010.7
20260507200928 52 340 8.0 14.0 0.04 0.17 0.07 100 1010.9
20260507200425 52 356 6.0 14.0 0.04 0.17 0.07 100 1011.8
20260507195927 52 343 5.0 14.0 0.04 0.17 0.07 100 1011.7
20260507195428 52 344 7.0 12.0 0.04 0.17 0.07 100 1011.7
20260507194928 52 343 7.0 11.0 0.04 0.17 0.07 100 1011.6
20260507194426 52 349 6.0 15.0 0.04 0.17 0.07 100 1011.8
20260507193925 53 338 6.0 15.0 0.05 0.17 0.07 100 1011.8
20260507193425 52 347 9.0 15.0 0.05 0.17 0.07 100 1011.5
20260507192925 52 339 8.0 15.0 0.04 0.16 0.06 100 1011.9
20260507192427 52 339 7.0 13.0 0.02 0.14 0.04 100 1012.2
20260507191925 52 345 7.0 12.0 0.01 0.13 0.03 100 1011.6
20260507191425 52 336 7.0 17.0 0.01 0.13 0.03 100 1011.6
20260507190925 52 342 9.0 17.0 0.01 0.13 0.03 100 1011.5
20260507190425 52 343 10.0 15.0 0.01 0.13 0.03 100 1011.5
20260507190134 52 341 3.0 12.0 0.01 0.13 0.03 100 1011.7
20260507185925 52 341 3.0 12.0 0.01 0.13 0.03 100 1011.7
20260507185425 52 343 1.0 13.0 0.01 0.13 0.03 100 1011.6
20260507184925 52 340 6.0 15.0 0.01 0.13 0.03 100 1011.7
20260507184425 52 341 8.0 17.0 0.01 0.13 0.03 100 1011.6
20260507183927 52 346 9.0 17.0 0.00 0.12 0.02 100 1011.8
20260507183206 52 346 6.0 17.0 0.00 0.12 0.02 100 1011.7
20260507182704 53 346 10.0 18.0 0.00 0.12 0.02 100 1011.6
20260507182204 53 343 10.0 18.0 0.00 0.12 0.02 100 1011.7
20260507181704 53 349 8.0 18.0 0.00 0.12 0.02 100 1011.7
20260507181205 53 0 0.0 17.0 0.00 0.12 0.02 100 1011.7
20260507180704 53 359 1.0 17.0 0.00 0.12 0.02 100 1011.6
20260507180204 53 360 8.0 14.0 0.02 0.12 0.02 100 1011.6
20260507175705 53 10 7.0 13.0 0.02 0.13 0.02 100 1011.6
20260507175204 54 347 7.0 11.0 0.02 0.13 0.02 100 1011.8
20260507174704 54 346 5.0 13.0 0.02 0.13 0.02 100 1011.8
20260507174205 54 11 6.0 13.0 0.02 0.13 0.02 100 1011.9
20260507173204 55 1 2.0 8.0 0.02 0.14 0.02 100 1011.9
20260507172704 55 346 1.0 9.0 0.02 0.14 0.02 100 1011.9
20260507172204 55 340 2.0 10.0 0.02 0.14 0.02 100 1012.0
20260507171705 55 341 3.0 11.0 0.02 0.14 0.02 100 1011.9
20260507171206 55 328 5.0 12.0 0.02 0.14 0.02 100 1011.9
20260507170704 55 350 3.0 12.0 0.02 0.14 0.02 100 1011.9